1343433634088,2.45183
1343433694088,2.44425
1343433754088,2.46048
1343433814088,2.43888
1343433874088,2.44352
1343433934088,2.43221
1343433994088,2.44967
1343434054088,2.44512
1343434114088,2.45557
1343434174088,2.42726
1343434234088,2.47456
1343434294088,2.43042
1343434354088,2.44756
1343434414088,2.43316
1343434474088,2.42279
1343434534088,2.45003
1343434594088,2.46958
1343434654088,2.43843
1343434714088,2.42908
1343434774088,2.44443
1343434834088,2.45841
1343434894088,2.42765
1343434954088,2.43583
1343435014088,2.43972
1343435074088,2.46501
1343435134088,2.46369
1343435194088,2.43824
1343435254088,2.44840
1343435314088,2.47022
1343435374088,2.42736
1343435434088,2.43833
1343435494088,2.40773
1343435554088,2.44804
1343435614088,2.43338
1343435674088,2.43897
1343435734088,2.41606
1343435794088,2.42697
1343435854088,2.41262
1343435914088,2.40970
1343435974088,2.43439
1343436034088,2.42127
1343436094088,2.42102
1343436154088,2.44343
1343436214088,2.41377
1343436274088,2.43230
1343436334088,2.41473
1343436394088,2.43324
1343436454088,2.43019
1343436514088,2.41809
1343436574088,2.42274
1343436634088,2.40700
1343436694088,2.44644
1343436754088,2.42493
1343436814088,2.46137
1343436874088,2.41224
1343436934088,2.41048
1343436994088,2.41644
1343437054088,2.43610
1343437114088,2.40739
1343437174088,2.41224
1343437234097,2.44241
1343437294097,2.43022
1343437354097,2.43140
1343437414097,2.43692
1343437474097,2.43782
1343437534097,2.42066
1343437594097,2.43339
1343437654097,2.41821
1343437714097,2.41793
1343437774097,2.41145
1343437834097,2.46942
1343437894097,2.44303
1343437954097,2.42589
1343438014097,2.44636
1343438074097,2.43851
1343438134097,2.43012
1343438194097,2.42849
1343438254097,2.43305
1343438314097,2.42238
1343438374097,2.45919
1343438434097,2.45032
1343438494097,2.43324
1343438554097,2.43627
1343438614097,2.43405
1343438674097,2.44066
1343438734097,2.44940
1343438794097,2.41133
1343438854097,2.42886
1343438914097,2.43265
1343438974097,2.43781
1343439034097,2.41327
1343439094097,2.42655
1343439154097,2.44421
1343439214097,2.43759
1343439274097,2.41840
1343439334097,2.41993
1343439394097,2.43382
1343439454097,2.42603
1343439514097,2.43174
1343439574097,2.42114
1343439634097,2.43276
1343439694097,2.41924
1343439754097,2.40867
1343439814097,2.42738
1343439874097,2.44722
1343439934097,2.42639
1343439994097,2.42592
1343440054097,2.42903
1343440114097,2.42480
1343440174097,2.41610
1343440234097,2.44162
1343440294097,2.40797
1343440354097,2.40351
1343440414097,2.44091
1343440474097,2.41537
1343440534097,2.40557
1343440594097,2.44083
1343440654097,2.45359
1343440714097,2.43670
1343440774097,2.43449
1343440834107,2.41816
1343440894107,2.41422
1343440954107,2.44523
1343441014107,2.44178
1343441074107,2.43095
1343441134107,2.45605
1343441194107,2.44722
1343441254107,2.43624
1343441314107,2.44236
1343441374107,2.44421
1343441434107,2.41477
1343441494107,2.43164
1343441554107,2.44532
1343441614107,2.41043
1343441674107,2.43164
1343441734107,2.41493
1343441794107,2.42060
1343441854107,2.42962
1343441914107,2.45442
1343441974107,2.44660
1343442034107,2.43638
1343442094107,2.42342
1343442154107,2.46306
1343442214107,2.44545
1343442274107,2.43959
1343442334107,2.42548
1343442394107,2.42606
1343442454107,2.43362
1343442514107,2.43082
1343442574107,2.42372
1343442634107,2.42744
1343442694107,2.42442
1343442754107,2.41865
1343442814107,2.44267
1343442874107,2.41547
1343442934107,2.44188
1343442994107,2.42015
1343443054107,2.43346
1343443114107,2.43052
1343443174107,2.43430
1343443234107,2.42356
1343443294107,2.42289
1343443354107,2.43332
1343443414107,2.44324
1343443474107,2.43283
1343443534107,2.44082
1343443594107,2.43631
1343443654107,2.42169
1343443714107,2.41655
1343443774107,2.43575
1343443834107,2.42443
1343443894107,2.43435
1343443954107,2.41964
1343444014107,2.41392
1343444074107,2.45334
1343444134107,2.41250
1343444194107,2.41610
1343444254107,2.42964
1343444314107,2.43015
1343444374107,2.42917
1343444434116,2.40942
1343444494116,2.41778
1343444554116,2.44387
1343444614116,2.43774
1343444674116,2.43422
1343444734116,2.38179
1343444794116,2.43035
1343444854116,2.42047
1343444914116,2.42402
1343444974116,2.40576
1343445034116,2.40414
1343445094116,2.42011
1343445154116,2.41252
1343445214116,2.41206
1343445274116,2.45110
1343445334116,2.41909
1343445394116,2.42099
1343445454116,2.42294
1343445514116,2.44911
1343445574116,2.42460
1343445634116,2.43476
1343445694116,2.41426
1343445754116,2.41106
1343445814116,2.40795
1343445874116,2.41474
1343445934116,2.40124
1343445994116,2.41105
1343446054116,2.42183
1343446114116,2.40082
1343446174116,2.41233
1343446234116,2.42148
1343446294116,2.40422
1343446354116,2.39831
1343446414116,2.41834
1343446474116,2.42501
1343446534116,2.43119
1343446594116,2.40929
1343446654116,2.44373
1343446714116,2.41915
1343446774116,2.42314
1343446834116,2.43317
1343446894116,2.39125
1343446954116,2.42915
1343447014116,2.41251
1343447074116,2.43128
1343447134116,2.41795
1343447194116,2.42400
1343447254116,2.42876
1343447314116,2.41705
1343447374116,2.41196
1343447434116,2.41462
1343447494116,2.42072
1343447554116,2.40612
1343447614116,2.42778
1343447674116,2.40270
1343447734116,2.41377
1343447794116,2.43190
1343447854116,2.39586
1343447914116,2.42945
1343447974116,2.40977
1343448034125,2.42743
1343448094125,2.41405
1343448154125,2.40895
1343448214125,2.31158
1343448274125,2.42388
1343448334125,2.40357
1343448394125,2.40395
1343448454125,2.41297
1343448514125,2.40224
1343448574125,2.39941
1343448634125,2.41272
1343448694125,2.41087
1343448754125,2.42537
1343448814125,2.40953
1343448874125,2.42126
1343448934125,2.39321
1343448994125,2.42657
1343449054125,2.41488
1343449114125,2.42089
1343449174125,2.43476
1343449234125,2.42275
1343449294125,2.50024
1343449354125,2.40812
1343449414125,2.42379
1343449474125,2.39070
1343449534125,2.41441
1343449594125,2.42852
1343449654125,2.41020
1343449714125,2.41677
1343449774125,2.41906
1343449834125,2.42025
1343449894125,2.42593
1343449954125,2.41558
1343450014125,2.41846
1343450074125,2.42966
1343450134125,2.43060
1343450194125,2.43223
1343450254125,2.43380
1343450314125,2.43044
1343450374125,2.40769
1343450434125,2.41257
1343450494125,2.41887
1343450554125,2.41609
1343450614125,2.41272
1343450674125,2.41493
1343450734125,2.41934
1343450794125,2.41818
1343450854125,2.43197
1343450914125,2.42125
1343450974125,2.42641
1343451034125,2.41346
1343451094125,2.43857
1343451154125,2.41346
1343451214125,2.42572
1343451274125,2.41028
1343451334125,2.41802
1343451394125,2.46018
1343451454125,2.41480
1343451514125,2.42439
1343451574125,2.43821
1343451634134,2.44669
1343451694134,2.42599
1343451754134,2.44509
1343451814134,2.42111
1343451874134,2.42889
1343451934134,2.35777
1343451994134,2.43101
1343452054134,2.42446
1343452114134,2.43278
1343452174134,2.39094
1343452234134,2.39715
1343452294134,2.43329
1343452354134,2.45014
1343452414134,2.43293
1343452474134,2.44274
1343452534134,2.44233
1343452594134,2.43148
1343452654134,2.42106
1343452714134,2.42582
1343452774134,2.44008
1343452834134,2.44147
1343452894134,2.41357
1343452954134,2.40847
1343453014134,2.42630
1343453074134,2.44617
1343453134134,2.46665
1343453194134,2.44993
1343453254134,2.42572
1343453314134,2.43331
1343453374134,2.44469
1343453434134,2.42516
1343453494134,2.42701
1343453554134,2.42131
1343453614134,2.41023
1343453674134,2.42837
1343453734134,2.42541
1343453794134,2.41764
1343453854134,2.42560
1343453914134,2.42132
1343453974134,2.43966
1343454034134,2.43723
1343454094134,2.42293
1343454154134,2.42624
1343454214134,2.43827
1343454274134,2.42515
1343454334134,2.42756
1343454394134,2.44339
1343454454134,2.47071
1343454514134,2.40301
1343454574134,2.42536
1343454634134,2.41610
1343454694134,2.41434
1343454754134,2.40942
1343454814134,2.43656
1343454874134,2.43936
1343454934134,2.44986
1343454994134,2.44370
1343455054134,2.43080
1343455114134,2.44354
1343455174134,2.43075
1343455234143,2.43689
1343455294143,2.43658
1343455354143,2.41859
1343455414143,2.41742
1343455474143,2.42626
1343455534143,2.42032
1343455594143,2.44032
1343455654143,2.43052
1343455714143,2.42656
1343455774143,2.42388
1343455834143,2.42701
1343455894143,2.41959
1343455954143,2.42794
1343456014143,2.41468
1343456074143,2.43844
1343456134143,2.43353
1343456194143,2.42764
1343456254143,2.42658
1343456314143,2.44231
1343456374143,2.44604
1343456434143,2.42882
1343456494143,2.43970
1343456554143,2.41955
1343456614143,2.41795
1343456674143,2.43082
1343456734143,2.43867
1343456794143,2.43233
1343456854143,2.44099
1343456914143,2.41611
1343456974143,2.45226
1343457034143,2.42700
1343457094143,2.41875
1343457154143,2.45589
1343457214143,2.42623
1343457274143,2.42647
1343457334143,2.41734
1343457394143,2.43158
1343457454143,2.41553
1343457514143,2.43879
1343457574143,2.45360
1343457634143,2.43990
1343457694143,2.42122
1343457754143,2.42652
1343457814143,2.44916
1343457874143,2.42232
1343457934143,2.43870
1343457994143,2.42669
1343458054143,2.43027
1343458114143,2.41288
1343458174143,2.43107
1343458234143,2.46147
1343458294143,2.43798
1343458354143,2.43481
1343458414143,2.43540
1343458474143,2.43185
1343458534143,2.42970
1343458594143,2.44822
1343458654143,2.52436
1343458714143,2.45962
1343458774143,2.43220
1343458834152,2.43648
1343458894152,2.44965
1343458954152,2.41289
1343459014152,2.44977
1343459074152,2.45792
1343459134152,2.44556
1343459194152,2.44413
1343459254152,2.46435
1343459314152,2.44897
1343459374152,2.43712
1343459434152,2.43152
1343459494152,2.45642
1343459554152,2.45642
1343459614152,2.45760
1343459674152,2.42557
1343459734152,2.44518
1343459794152,2.45089
1343459854152,2.42953
1343459914152,2.43772
1343459974152,2.46669
1343460034152,2.42487
1343460094152,2.44840
1343460154152,2.43509
1343460214152,2.45888
1343460274152,2.44373
1343460334152,2.46387
1343460394152,2.43433
1343460454152,2.43995
1343460514152,2.46344
1343460574152,2.44698
1343460634152,2.44192
1343460694152,2.45496
1343460754152,2.45449
1343460814152,2.45475
1343460874152,2.47173
1343460934152,2.47224
1343460994152,2.47377
1343461054152,2.46868
1343461114152,2.44847
1343461174152,2.46683
1343461234152,2.46354
1343461294152,2.46706
1343461354152,2.46135
1343461414152,2.49776
1343461474152,2.47677
1343461534152,2.48465
1343461594152,2.46270
1343461654152,2.46313
1343461714152,2.47242
1343461774152,2.45200
1343461834152,2.47885
1343461894152,2.49211
1343461954152,2.44595
1343462014152,2.46795
1343462074152,2.47509
1343462134152,2.47224
1343462194152,2.42975
1343462254152,2.46466
1343462314152,2.46928
1343462374152,2.46806
1343462434161,2.45812
1343462494161,2.46162
1343462554161,2.46078
1343462614161,2.42773
1343462674161,2.44564
1343462734161,2.47797
1343462794161,2.48783
1343462854161,2.47145
1343462914161,2.46598
1343462974161,2.44989
1343463034161,2.46268
1343463094161,2.46904
1343463154161,2.45765
1343463214161,2.47386
1343463274161,2.46965
1343463334161,2.47438
1343463394161,2.45911
1343463454161,2.47487
1343463514161,2.47045
1343463574161,2.46550
1343463634161,2.48068
1343463694161,2.46977
1343463754161,2.47248
1343463814161,2.46837
1343463874161,2.49191
1343463934161,2.49589
1343463994161,2.44797
1343464054161,2.48564
1343464114161,2.46304
1343464174161,2.47775
1343464234161,2.46241
1343464294161,2.47852
1343464354161,2.48960
1343464414161,2.49699
1343464474161,2.48865
1343464534161,2.49807
1343464594161,2.49100
1343464654161,2.48964
1343464714161,2.51029
1343464774161,2.48352
1343464834161,2.48904
1343464894161,2.48599
1343464954161,2.48941
1343465014161,2.50087
1343465074161,2.51650
1343465134161,2.50799
1343465194161,2.48368
1343465254161,2.50553
1343465314161,2.49929
1343465374161,2.50193
1343465434161,2.49619
1343465494161,2.50197
1343465554161,2.51071
1343465614161,2.49114
1343465674161,2.51432
1343465734161,2.50818
1343465794161,2.50656
1343465854161,2.49234
1343465914161,2.49057
1343465974161,2.49267
1343466034170,2.48971
1343466094170,2.51773
1343466154170,2.49679
1343466214170,2.49809
1343466274170,2.52198
1343466334170,2.51764
1343466394170,2.49832
1343466454170,2.49283
1343466514170,2.49679
1343466574170,2.51594
1343466634170,2.48476
1343466694170,2.51884
1343466754170,2.50090
1343466814170,2.56864
1343466874170,2.51632
1343466934170,2.51046
1343466994170,2.48679
1343467054170,2.52510
1343467114170,2.50920
1343467174170,2.50292
1343467234170,2.50663
1343467294170,2.53409
1343467354170,2.50215
1343467414170,2.52607
1343467474170,2.52083
1343467534170,2.49594
1343467594170,2.53193
1343467654170,2.50131
1343467714170,2.51190
1343467774170,2.50943
1343467834170,2.52686
1343467894170,2.52500
1343467954170,2.51895
1343468014170,2.51914
1343468074170,2.52332
1343468134170,2.50668
1343468194170,2.51944
1343468254170,2.51460
1343468314170,2.47886
1343468374170,2.53531
1343468434170,2.51693
1343468494170,2.51855
1343468554170,2.53226
1343468614170,2.51356
1343468674170,2.49169
1343468734170,2.51107
1343468794170,2.50132
1343468854170,2.50026
1343468914170,2.51576
1343468974170,2.52401
1343469034170,2.51239
1343469094170,2.50790
1343469154170,2.52940
1343469214170,2.48387
1343469274170,2.50618
1343469334170,2.48955
1343469394170,2.49397
1343469454170,2.48791
1343469514170,2.48629
1343469574170,2.50748
1343469634179,2.44070
1343469694179,2.51592
1343469754179,2.51388
1343469814179,2.48254
1343469874179,2.47521
1343469934179,2.48734
1343469994179,2.55624
1343470054179,2.48413
1343470114179,2.49987
1343470174179,2.48191
1343470234179,2.49032
1343470294179,2.47282
1343470354179,2.46825
1343470414179,2.51516
1343470474179,2.48249
1343470534179,2.50720
1343470594179,2.48360
1343470654179,2.50814
1343470714179,2.49813
1343470774179,2.50062
1343470834179,2.50843
1343470894179,2.50509
1343470954179,2.48848
1343471014179,2.50125
1343471074179,2.49815
1343471134179,2.48790
1343471194179,2.49961
1343471254179,2.52627
1343471314179,2.49372
1343471374179,2.48573
1343471434179,2.49558
1343471494179,2.50457
1343471554179,2.49075
1343471614179,2.49507
1343471674179,2.50544
1343471734179,2.48070
1343471794179,2.50383
1343471854179,2.49610
1343471914179,2.47609
1343471974179,2.49671
1343472034179,2.53402
1343472094179,2.50091
1343472154179,2.49194
1343472214179,2.49577
1343472274179,2.50114
1343472334179,2.51020
1343472394179,2.50237
1343472454179,2.50400
1343472514179,2.49336
1343472574179,2.50011
1343472634179,2.49870
1343472694179,2.50646
1343472754179,2.50079
1343472814179,2.51305
1343472874179,2.49562
1343472934179,2.49961
1343472994179,2.47625
1343473054179,2.51174
1343473114179,2.51713
1343473174179,2.49929
1343473234188,2.49541
1343473294188,2.49644
1343473354188,2.48224
1343473414188,2.50126
1343473474188,2.48920
1343473534188,2.45641
1343473594188,2.48460
1343473654188,2.50549
1343473714188,2.47395
1343473774188,2.48001
1343473834188,2.45892
1343473894188,2.37880
1343474434188,2.47873
1343474494188,2.43101
1343474554188,2.47633
1343474614188,2.48489
1343474674188,2.49255
1343474734188,2.47783
1343474794188,2.48746
1343474854188,2.46186
1343474914188,2.49030
1343474974188,2.47790
1343475034188,2.50002
1343475094188,2.47623
1343475154188,2.49232
1343475214188,2.47770
1343475274188,2.50004
1343475334188,2.50649
1343475394188,2.45914
1343475454188,2.49155
1343475514188,2.49102
1343475574188,2.48409
1343475634188,2.49165
1343475694188,2.47558
1343475754188,2.46895
1343475814188,2.47813
1343475874188,2.47969
1343475934188,2.48889
1343475994188,2.49033
1343476054188,2.47457
1343476114188,2.49461
1343476174188,2.49151
1343476234188,2.45609
1343476294188,2.48428
1343476354188,2.46083
1343476414188,2.49222
1343476474188,2.43763
1343476534188,2.45603
1343476594188,2.48948
1343476654188,2.47489
1343476714188,2.48224
1343476774188,2.46571
1343476834197,2.46620
1343476894197,2.47607
1343476954197,2.48678
1343477014197,2.47563
1343477074197,2.48374
1343477134197,2.49495
1343477194197,2.47394
1343477254197,2.46278
1343477314197,2.46352
1343477374197,2.45955
1343477434197,2.48037
1343477494197,2.48783
1343477554197,2.48295
1343477614197,2.47348
1343477674197,2.48532
1343477734197,2.46908
1343477794197,2.48631
1343477854197,2.46710
1343477914197,2.48180
1343477974197,2.48563
1343478034197,2.51005
1343478094197,2.49367
1343478154197,2.49830
1343478214197,2.49380
1343478274197,2.47419
1343478334197,2.49156
1343478394197,2.49969
1343478454197,2.50257
1343478514197,2.50780
1343478574197,2.48237
1343478634197,2.48407
1343478694197,2.50346
1343478754197,2.50752
1343478814197,2.50907
1343478874197,2.50414
1343478934197,2.51240
1343478994197,2.51724
1343479054197,2.50164
1343479114197,2.52111
1343479174197,2.51623
1343479234197,2.50863
1343479294197,2.50162
1343479354197,2.49637
1343479414197,2.50016
1343479474197,2.51835
1343479534197,2.53697
1343479594197,2.49884
1343479654197,2.51442
1343479714197,2.53683
1343479774197,2.53610
1343479834197,2.50434
1343479894197,2.50748
1343479954197,2.52135
1343480014197,2.51269
1343480074197,2.50902
1343480134197,2.49386
1343480194197,2.50656
1343480254197,2.52453
1343480314197,2.51598
1343480374197,2.49349
1343480434207,2.52575
1343480494207,2.52017
1343480554207,2.49277
1343480614207,2.53328
1343480674207,2.49422
1343480734207,2.52708
1343480794207,2.52905
1343480854207,2.53299
1343480914207,2.51877
1343480974207,2.52460
1343481034207,2.51989
1343481094207,2.49391
1343481154207,2.51453
1343481214207,2.51212
1343481274207,2.54703
1343481334207,2.53382
1343481394207,2.51083
1343481454207,2.53893
1343481514207,2.53673
1343481574207,2.51052
1343481634207,2.51354
1343481694207,2.52347
1343481754207,2.49110
1343481814207,2.52598
1343481874207,2.52388
1343481934207,2.50510
1343481994207,2.50661
1343482054207,2.52784
1343482114207,2.52503
1343482174207,2.51404
1343482234207,2.53039
1343482294207,2.51668
1343482354207,2.51278
1343482414207,2.51663
1343482474207,2.53083
1343482534207,2.51278
1343482594207,2.51910
1343482654207,2.51008
1343482714207,2.53967
1343482774207,2.48715
1343482834207,2.55311
1343482894207,2.49494
1343482954207,2.52216
1343483014207,2.51143
1343483074207,2.52543
1343483134207,2.50507
1343483194207,2.52566
1343483254207,2.52451
1343483314207,2.48678
1343483374207,2.49945
1343483434207,2.53667
1343483494207,2.51968
1343483554207,2.50831
1343483614207,2.52864
1343483674207,2.53787
1343483734207,2.50099
1343483794207,2.53713
1343483854207,2.50860
1343483914207,2.49228
1343483974207,2.49944
1343484034217,2.53296
1343484094217,2.50265
1343484154217,2.53970
1343484214217,2.53016
1343484274217,2.52816
1343484334217,2.51628
1343484394217,2.52220
1343484454217,2.53090
1343484514217,2.51117
1343484574217,2.50573
1343484634217,2.51971
1343484694217,2.53480
1343484754217,2.50726
1343484814217,2.54639
1343484874216,2.51065
1343484934216,2.50933
1343484994216,2.52401
1343485054216,2.50598
1343485114216,2.50885
1343485174217,2.54837
1343485234217,2.51871
1343485294217,2.52619
1343485354217,2.54040
1343485414217,2.52331
1343485474217,2.51589
1343485534217,2.48602
1343485594217,2.49924
1343485654217,2.52722
1343485714217,2.51327
1343485774217,2.51107
1343485834217,2.49065
1343485894217,2.51694
1343485954217,2.51632
1343486014217,2.48069
1343486074217,2.50427
1343486134217,2.51212
1343486194216,2.51019
1343486254216,2.52176
1343486314216,2.52709
1343486374216,2.50205
1343486434216,2.51027
1343486494216,2.49559
1343486554217,2.50668
1343486614217,2.52191
1343486674217,2.51689
1343486734217,2.51502
1343486794217,2.49339
1343486854217,2.51451
1343486914217,2.53591
1343486974217,2.49360
1343487034217,2.50446
1343487094217,2.49796
1343487154217,2.51227
1343487214217,2.52173
1343487274217,2.49694
1343487334217,2.52381
1343487394217,2.50014
1343487454217,2.51462
1343487514217,2.50537
1343487574216,2.48801
1343487634226,2.51301
1343487694226,2.49174
1343487754226,2.50786
1343487814226,2.50412
1343487874226,2.51722
1343487934226,2.50675
1343487994226,2.48180
1343488054226,2.49928
1343488114226,2.49308
1343488174226,2.50024
1343488234226,2.50101
1343488294226,2.54153
1343488354226,2.49437
1343488414226,2.51715
1343488474226,2.50695
1343488534226,2.52258
1343488594226,2.51489
1343488654226,2.49622
1343488714226,2.50701
1343488774226,2.48307
1343488834226,2.48716
1343488894226,2.50181
1343488954226,2.50391
1343489014226,2.51053
1343489074226,2.50619
1343489134226,2.51704
1343489194226,2.49059
1343489254226,2.49389
1343489314226,2.51655
1343489374226,2.49745
1343489434226,2.49517
1343489494226,2.48058
1343489554226,2.49980
1343489614226,2.48276
1343489674226,2.47682
1343489734226,2.48012
1343489794226,2.48446
1343489854226,2.50901
1343489914226,2.49144
1343489974226,2.49083
1343490034226,2.50839
1343490094226,2.50885
1343490154226,2.51181
1343490214226,2.49467
1343490274226,2.46935
1343490334226,2.50312
1343490394226,2.50391
1343490454226,2.51012
1343490514226,2.48942
1343490574226,2.49593
1343490634226,2.49166
1343490694226,2.47972
1343490754226,2.50456
1343490814226,2.48478
1343490874226,2.47896
1343490934226,2.49498
1343490994226,2.50836
1343491054226,2.49939
1343491114226,2.49953
1343491174226,2.51212
1343491234237,2.49753
1343491294237,2.51932
1343491354237,2.51013
1343491414237,2.47323
1343491474237,2.51630
1343491534237,2.48672
1343491594237,2.50493
1343491654237,2.51185
1343491714237,2.49965
1343491774237,2.50415
1343491834237,2.47890
1343491894237,2.48749
1343491954237,2.50766
1343492014237,2.52110
1343492074237,2.50541
1343492134237,2.50056
1343492194237,2.50141
1343492254237,2.50145
1343492314237,2.49167
1343492374237,2.51149
1343492434237,2.49816
1343492494237,2.50024
1343492554237,2.48571
1343492614237,2.52972
1343492674237,2.52736
1343492734237,2.51595
1343492794237,2.51568
1343492854237,2.50785
1343492914237,2.50722
1343492974237,2.50955
1343493034237,2.51292
1343493094237,2.52505
1343493154237,2.48579
1343493214237,2.53382
1343493274237,2.52351
1343493334237,2.52228
1343493394237,2.50935
1343493454237,2.51287
1343493514237,2.52565
1343493574237,2.53483
1343493634237,2.52675
1343493694237,2.55839
1343493754237,2.51826
1343493814237,2.52718
1343493874237,2.54907
1343493934237,2.53905
1343493994237,2.55709
1343494054237,2.53460
1343494114237,2.51462
1343494174237,2.56735
1343494234237,2.54121
1343494294237,2.46462
1343494354237,2.53276
1343494414237,2.52887
1343494474237,2.54033
1343494534237,2.52656
1343494594237,2.53107
1343494654237,2.54130
1343494714237,2.51454
1343494774237,2.51210
1343494834247,2.55415
1343494894247,2.53547
1343494954247,2.54064
1343495014247,2.52637
1343495074247,2.52603
1343495134247,2.53835
1343495194247,2.54452
1343495254247,2.54206
1343495314247,2.54700
1343495374247,2.54998
1343495434247,2.54994
1343495494247,2.54870
1343495554247,2.55092
1343495614247,2.56105
1343495674247,2.36962
1343495734247,2.55369
1343495794247,2.55124
1343495854247,2.53415
1343495914247,2.55003
1343495974247,2.54599
1343496034247,2.53928
1343496094247,2.55339
1343496154247,2.55695
1343496214247,2.56217
1343496274247,2.36148
1343496334247,2.54072
1343496394247,2.53122
1343496454247,2.54454
1343496514247,2.54078
1343496574247,2.54845
1343496634247,2.54891
1343496694247,2.53507
1343496754247,2.53941
1343496814247,2.54153
1343496874247,2.55229
1343496934247,2.52946
1343496994247,2.53484
1343497054247,2.53804
1343497114247,2.53440
1343497174247,2.55220
1343497234247,2.53562
1343497294247,2.53228
1343497354247,2.54904
1343497414247,2.54932
1343497474247,2.52134
1343497534247,2.54529
1343497594247,2.52961
1343497654247,2.52474
1343497714247,2.53291
1343497774247,2.51111
1343497834247,2.55493
1343497894247,2.54175
1343497954247,2.51819
1343498014247,2.51807
1343498074247,2.54041
1343498134247,2.55719
1343498194247,2.50719
1343498254247,2.53889
1343498314247,2.51769
1343498374247,2.53162
1343498434258,2.53596
1343498494258,2.51984
1343498554258,2.54849
1343498614258,2.53593
1343498674258,2.51928
1343498734258,2.53531
1343498794258,2.51601
1343498854258,2.52967
1343498914258,2.53044
1343498974258,2.54263
1343499034258,2.54980
1343499094258,2.53267
1343499154258,2.53893
1343499214258,2.52612
1343499274258,2.53410
1343499334258,2.55597
1343499394258,2.53991
1343499454258,2.53663